Regional Weather Roundup
Issued by NWS

Home | Current Version | Previous Version | Text Only | Print | Product List | Glossary Off
Versions: 1 2 3 4 5 6 7 8 9 10 11 12 13 14 15 16 17 18 19 20 21 22 23 24 25 26 27 28 29 30 31 32 33 34 35 36 37 38 39 40 41 42 43 44 45 46 47 48 49 50

000
ASUS45 KBOI 190410
RWRID
WEATHER ROUNDUP FOR IDAHO
NATIONAL WEATHER SERVICE BOISE ID
900 PM MST THU DEC 18 2014

NOTE: "FAIR" INDICATES FEW OR NO CLOUDS BELOW 12000 FEET
WITH NO SIGNIFICANT WEATHER AND/OR OBSTRUCTIONS TO VISIBILITY

IDZ012-014-190500-
SOUTHWEST IDAHO


CITY           SKY/WX    TMP DP  RH WIND       PRES   REMARKS
BOISE          MOCLDY    41  33  73 SE8       30.07F
CALDWELL       CLOUDY    43  28  56 E12       30.09S
MOUNTAIN HOME  PTCLDY    40  32  72 E16       30.08F WCI  31
$$

IDZ016-017-190500-
SOUTHCENTRAL IDAHO


CITY           SKY/WX    TMP DP  RH WIND       PRES   REMARKS
BURLEY         CLOUDY    37  28  70 S9        30.11F WCI  30
JEROME         CLOUDY    35  28  75 E9        30.11S WCI  28
TWIN FALLS     CLOUDY    38  28  67 S7        30.10F WCI  33
$$

IDZ019>023-190500-
SOUTHEAST IDAHO


CITY           SKY/WX    TMP DP  RH WIND       PRES   REMARKS
IDAHO FALLS    CLOUDY    27  24  89 CALM      30.13S
POCATELLO      PTCLDY    35  28  75 S9        30.14S WCI  28
REXBURG        CLOUDY    31  28  89 CALM      30.13S
$$

IDZ006-010-011-018-031-032-190500-
CENTRAL IDAHO MOUNTAINS


CITY           SKY/WX    TMP DP  RH WIND       PRES   REMARKS
MCCALL         CLOUDY    32  31  96 CALM      30.02F
HAILEY         CLOUDY    32  28  86 CALM      30.12S
STANLEY          N/A     31  24  75 SE5       30.05F WCI  26
SALMON         CLOUDY    27  21  80 CALM      30.08S
CHALLIS        CLOUDY    26  22  84 CALM      30.08S
$$

IDZ002-004-006-007-026-190500-
NORTHERN IDAHO


CITY           SKY/WX    TMP DP  RH WIND       PRES   REMARKS
LEWISTON       CLOUDY    44  36  73 SE9       29.97F
LOWELL           N/A     38  36  92 CALM      30.07R
COEUR D`ALENE  CLOUDY    37  36  93 NE5       29.95S WCI  34
MULLAN PASS    FOG       30  28  92 CALM      29.91S VSB 1/4
$$


USA.gov is the U.S. government's official web portal to all federal, state and local government web resources and services.